[[{"header":{"parameterUnit":"m.s-1","parameterCategory":1,"la1":30.2991,"la2":30.254,"lo1":-89.0895,"lo2":-89.0444,"dy":0.0017,"dx":0.0017,"nx":28,"ny":28,"refTime":"2024-08-17T09:00:00:Z","depth":0,"parameterNumber":2,"parameterNumberName":"U-component_of_WINDS"},"data":[0,0,0,0,0,0,0,0,0,0,0,0,0,0,0,0,0,0,0,0,0,0,0,0,0,0,0,0,0,0,0,0,0,0,0,0,0,0,0,0,0,0,0,0,0,0,0,0,0,0,0,0,0,0,0,0,0,0,5.1877,5.1879,0,5.2041,5.2043,5.2045,5.1975,5.1971,5.1967,5.1964,5.2132,5.2139,5.2147,0,0,0,0,0,0,0,0,0,0,0,0,0,5.1501,5.1509,5.1877,5.1879,5.1881,5.2041,5.2043,5.2045,5.1976,5.1971,5.1966,5.1962,5.2129,5.2138,5.2148,0,0,0,0,0,0,0,0,0,0,0,0,0,5.1665,5.1511,5.1877,5.1866,5.1866,5.204,5.2043,5.2046,5.1977,5.1971,5.1965,5.196,5.2126,5.2138,5.215,5.2344,0,0,5.2187,5.2192,0,0,0,0,0,0,0,0,5.1656,5.1679,5.1865,5.1867,5.1868,5.1982,5.1972,5.2146,5.1979,5.1935,5.1964,5.1957,5.2086,5.2102,5.2145,5.2352,5.2359,5.2188,5.2195,5.2201,5.2204,0,0,0,0,0,0,0,5.1645,5.1671,5.1942,5.1868,5.187,5.1852,5.1869,5.2005,5.2042,5.1938,5.1934,5.1954,5.2086,5.2134,5.2149,5.2361,5.2188,5.2199,5.2206,5.2211,5.2732,5.2738,0,0,0,0,0,0,5.1633,5.1662,5.1937,5.1947,5.1745,5.1864,5.1882,5.1951,5.204,5.2048,5.1959,5.195,5.2116,5.2135,5.2154,5.2386,5.2201,5.2212,5.2219,5.2726,5.2734,5.2741,0,0,0,0,0,0,5.1625,5.1658,5.193,5.1803,5.1837,5.1876,5.1954,5.1958,5.2005,5.2056,5.2062,5.2001,5.2112,5.2137,5.2297,5.2391,5.2218,5.2229,5.2718,5.2728,5.2737,5.2851,0,0,0,0,0,0,5.1615,5.1656,5.1731,5.1806,5.1844,5.2071,5.196,5.1965,5.2026,5.2017,5.2097,5.2105,5.2109,5.2279,5.2309,5.2404,5.2238,5.271,5.2723,5.2734,5.2839,5.2864,5.2885,0,0,0,0,0,5.1602,5.1757,5.1735,5.1769,5.1938,5.2076,5.2098,5.21,5.2034,5.2109,5.2141,5.2102,5.2376,5.2296,5.2329,5.243,5.2704,5.2719,5.2733,5.2829,5.2859,5.2884,0,0,0,0,0,0,5.1693,5.1767,5.1743,5.1928,5.1996,5.2064,5.2159,5.2132,5.2221,5.2208,5.2206,5.2225,5.2389,5.2425,5.2335,5.2621,5.253,5.2552,5.2591,5.262,5.2642,5.263,5.2248,0,0,0,0,0,5.1735,5.1841,5.19,5.2056,5.2092,5.212,5.218,5.2175,5.2246,5.2275,5.2319,5.2389,5.249,5.2557,5.2653,5.2844,5.2859,5.293,5.2952,5.2971,5.2989,5.309,5.3122,5.2789,5.2789,5.2788,0,0,5.1822,5.1875,5.1943,5.2076,5.2129,5.2238,5.2145,5.2265,5.2345,5.2293,5.2446,5.2481,5.2558,5.2734,5.2813,5.2769,5.3085,5.2989,5.3004,5.3013,5.3109,5.314,5.3168,5.2799,5.2797,5.2795,0,0,5.2036,5.2088,5.2223,5.2277,5.2357,5.2375,5.2407,5.2479,5.25,5.2653,5.2615,5.2711,5.2886,5.2942,5.2994,5.3227,5.3193,5.3258,5.3377,5.3475,5.3501,5.3524,5.3606,5.3635,5.3277,5.3277,5.3277,0,5.2134,5.2298,5.2296,5.2419,5.2477,5.2434,5.257,5.2623,5.2731,5.2772,5.2721,5.2938,5.2988,5.3174,5.3231,5.3275,5.331,5.3249,5.3498,5.3521,5.3542,5.362,5.3651,5.3284,5.3284,5.3283,5.3282,0,5.2413,5.2527,5.2626,5.2731,5.2801,5.293,5.2946,5.3017,5.3006,5.3028,5.3183,5.3241,5.3347,5.3391,5.3382,5.3576,5.3546,5.3497,5.3405,5.3581,5.3654,5.3684,5.3295,5.3292,5.329,5.3288,0,0,5.2691,5.2791,5.2827,5.2873,5.2957,5.3045,5.3171,5.3274,5.3334,5.3409,5.3514,5.3662,5.3616,5.3674,5.3671,5.3757,5.3935,5.3697,5.3699,5.3738,5.415,5.4186,5.422,5.3913,5.3919,5.3924,5.4143,0,5.291,5.3131,5.3132,5.3335,5.3439,5.3398,5.3507,5.357,5.3594,5.3684,5.371,5.3814,5.3747,5.3781,5.3865,5.3896,5.4018,5.388,5.4009,5.4014,5.399,5.4259,5.4298,5.4502,5.4172,5.4176,5.418,0,5.3196,5.3279,5.3493,5.3559,5.3603,5.3701,5.3794,5.3882,5.3952,5.3962,5.4027,5.4009,5.4136,5.404,5.4213,5.412,5.4172,5.4195,5.4203,5.4214,5.4107,5.4276,5.4568,5.4598,5.4225,5.4221,5.4218,0,5.3375,5.3541,5.3689,5.373,5.3812,5.3881,5.3919,5.3982,5.4044,5.4125,5.4164,5.4259,5.4311,5.4385,5.4393,5.4323,5.4567,5.4472,5.4578,5.4578,5.4631,5.4627,5.4934,5.4667,5.4666,5.4666,5.4665,0,5.362,5.3751,5.377,5.3862,5.4007,5.4006,5.415,5.4181,5.4238,5.4333,5.4304,5.4394,5.44,5.4492,5.4499,5.464,5.4664,5.4675,5.4675,5.4677,5.4676,5.4711,5.4697,5.4674,5.4672,5.4671,5.4669,0,5.3845,5.3863,5.4021,5.4085,5.4104,5.4209,5.4263,5.4349,5.4368,5.449,5.4518,5.4549,5.4655,5.4671,5.4796,5.48,5.4969,5.4955,5.4946,5.4943,5.5047,5.5037,5.5386,5.5431,5.5137,5.5139,5.5142,0,5.3999,5.4099,5.4173,5.4235,5.4275,5.4376,5.4437,5.444,5.4505,5.459,5.4666,5.4769,5.4852,5.5024,5.5057,5.5152,5.5139,5.5255,5.5153,5.5151,5.5139,5.5132,5.5141,5.5274,5.5278,5.528,5.5282,0,5.427,5.4274,5.4364,5.4457,5.4531,5.4605,5.4674,5.4726,5.4736,5.4811,5.4919,5.4983,5.511,5.5212,5.5306,5.5343,5.5315,5.5314,5.5343,5.5346,5.5335,5.534,5.4998,5.5306,5.5304,5.5302,5.5301,5.53,5.4464,5.455,5.4615,5.4715,5.4767,5.4832,5.4915,5.4944,5.5035,5.5138,5.5133,5.5252,5.5316,5.5438,5.5482,5.5574,5.5536,5.5579,5.5589,5.56,5.5609,5.5321,5.5591,5.5591,5.559,5.5589,5.5589,0,5.4732,5.4772,5.4864,5.4961,5.5039,5.5005,5.5079,5.5147,5.5251,5.5314,5.5395,5.5518,5.5617,5.5657,5.5753,5.5819,5.5808,5.5844,5.5838,5.5847,5.5638,5.5603,5.5851,5.5851,5.5851,5.5851,5.5851,5.5851,5.4881,5.5024,5.5035,5.5202,5.524,5.5356,5.5401,5.5459,5.5509,5.5647,5.5729,5.5754,5.5807,5.5906,5.5994,5.6003,5.6039,5.6081,5.6084,5.5889,5.5862,5.5837,5.5803,5.6089,5.609,5.6285,5.6287,5.6288]},{"header":{"parameterUnit":"m.s-1","parameterCategory":1,"la1":30.2991,"la2":30.254,"lo1":-89.0895,"lo2":-89.0444,"dy":0.0017,"dx":0.0017,"nx":28,"ny":28,"refTime":"2024-08-17T09:00:00:Z","depth":0,"parameterNumber":3,"parameterNumberName":"V-component_of_WINDS"},"data":[0,0,0,0,0,0,0,0,0,0,0,0,0,0,0,0,0,0,0,0,0,0,0,0,0,0,0,0,0,0,0,0,0,0,0,0,0,0,0,0,0,0,0,0,0,0,0,0,0,0,0,0,0,0,0,0,0,0,0.5382,0.538,0,0.5273,0.5271,0.527,0.5228,0.5229,0.5229,0.5229,0.5116,0.5113,0.5109,0,0,0,0,0,0,0,0,0,0,0,0,0,0.5551,0.5548,0.5382,0.538,0.5379,0.5273,0.5271,0.527,0.5228,0.5229,0.5229,0.5229,0.5117,0.5113,0.5109,0,0,0,0,0,0,0,0,0,0,0,0,0,0.5463,0.5547,0.5382,0.5345,0.5341,0.5273,0.5271,0.5269,0.5228,0.5229,0.5229,0.523,0.5118,0.5113,0.5108,0.5068,0,0,0.5093,0.5091,0,0,0,0,0,0,0,0,0.5468,0.5457,0.5352,0.5348,0.5343,0.5265,0.5289,0.5202,0.5228,0.5271,0.5229,0.523,0.5165,0.5156,0.5134,0.5063,0.5058,0.5093,0.509,0.5088,0.5086,0,0,0,0,0,0,0,0.5474,0.5461,0.5338,0.5351,0.5345,0.5334,0.5322,0.5273,0.5216,0.5267,0.5264,0.5252,0.5162,0.5139,0.5132,0.5056,0.5093,0.5089,0.5086,0.5084,0.4944,0.4943,0,0,0,0,0,0,0.5487,0.5467,0.5342,0.5335,0.5408,0.533,0.5317,0.5289,0.5217,0.5206,0.5251,0.525,0.5148,0.5137,0.5127,0.5074,0.5088,0.5083,0.508,0.4945,0.4944,0.4943,0,0,0,0,0,0,0.5491,0.5476,0.5346,0.54,0.5383,0.5327,0.5296,0.5287,0.5264,0.5205,0.5195,0.5238,0.5148,0.5134,0.5083,0.5069,0.5081,0.5076,0.4946,0.4945,0.4944,0.4968,0,0,0,0,0,0,0.5496,0.5478,0.5463,0.54,0.538,0.5305,0.5295,0.5284,0.5256,0.5253,0.519,0.518,0.5147,0.5091,0.5078,0.5063,0.5072,0.4947,0.4945,0.4944,0.4968,0.4968,0.4968,0,0,0,0,0,0.5502,0.5474,0.5462,0.5447,0.536,0.5304,0.5292,0.5255,0.5255,0.5238,0.52,0.5182,0.5073,0.5086,0.5071,0.5054,0.4947,0.4946,0.4944,0.4968,0.4968,0.4968,0,0,0,0,0,0,0.5536,0.5465,0.5451,0.5402,0.536,0.5297,0.5276,0.5257,0.5213,0.5212,0.5167,0.5153,0.5105,0.5075,0.509,0.501,0.5009,0.5004,0.5032,0.5031,0.5031,0.5039,0.5068,0,0,0,0,0,0.5538,0.5499,0.5439,0.5402,0.5381,0.5332,0.5306,0.5281,0.5235,0.5216,0.5175,0.513,0.5085,0.5057,0.5013,0.4964,0.4948,0.4945,0.4945,0.4945,0.4941,0.4911,0.4908,0.4938,0.4938,0.4938,0,0,0.5542,0.5498,0.5476,0.5408,0.5371,0.5331,0.5317,0.5275,0.5244,0.521,0.5158,0.5126,0.5073,0.5022,0.4998,0.4995,0.4929,0.4943,0.4943,0.4939,0.4909,0.4906,0.4903,0.4937,0.4937,0.4937,0,0,0.5527,0.5491,0.5455,0.5419,0.5365,0.5332,0.5323,0.5263,0.524,0.5188,0.5161,0.5123,0.5048,0.501,0.4982,0.4951,0.4932,0.4938,0.4937,0.4908,0.4905,0.4903,0.489,0.4887,0.4935,0.4935,0.4935,0,0.5539,0.5477,0.5439,0.5398,0.5368,0.5335,0.5297,0.5264,0.5198,0.5177,0.5175,0.5079,0.5041,0.498,0.4972,0.4951,0.4938,0.4945,0.4909,0.4906,0.4903,0.4891,0.4887,0.4936,0.4936,0.4936,0.4936,0,0.5493,0.5451,0.5428,0.5365,0.5332,0.5293,0.5248,0.5219,0.5197,0.5164,0.511,0.5063,0.5008,0.4992,0.497,0.4927,0.4927,0.4918,0.4915,0.4902,0.489,0.4885,0.4937,0.4937,0.4937,0.4936,0,0,0.5498,0.5413,0.5405,0.5375,0.5312,0.5278,0.5236,0.5183,0.5158,0.5113,0.5077,0.5013,0.5004,0.4971,0.4944,0.4919,0.4896,0.4912,0.491,0.4909,0.4843,0.485,0.4845,0.4883,0.4882,0.4881,0.4847,0,0.5474,0.5399,0.5363,0.5304,0.5263,0.523,0.5194,0.5151,0.5119,0.5079,0.5043,0.4998,0.499,0.497,0.4943,0.4904,0.4882,0.4906,0.4847,0.4845,0.486,0.4839,0.4845,0.4816,0.4842,0.4841,0.4841,0,0.5436,0.5391,0.5328,0.5267,0.5249,0.5217,0.5164,0.5127,0.5076,0.5055,0.5018,0.4991,0.4945,0.4946,0.4881,0.4899,0.4872,0.4849,0.4847,0.4839,0.4841,0.4828,0.4806,0.4801,0.4833,0.4834,0.4834,0,0.5444,0.5368,0.5319,0.5295,0.5224,0.5202,0.5171,0.5121,0.509,0.5044,0.5023,0.4972,0.4943,0.4904,0.4863,0.4868,0.4801,0.48,0.4781,0.4782,0.4767,0.4768,0.4738,0.4753,0.4753,0.4753,0.4753,0,0.542,0.5383,0.5321,0.5292,0.5248,0.5206,0.5163,0.513,0.5085,0.5047,0.5016,0.4981,0.4931,0.4889,0.4858,0.4807,0.4795,0.4775,0.4767,0.4777,0.4779,0.4758,0.4759,0.4752,0.4752,0.4752,0.4752,0,0.5422,0.5379,0.5324,0.5261,0.5244,0.5214,0.516,0.5129,0.5095,0.5047,0.5034,0.498,0.4929,0.4885,0.4819,0.4797,0.4744,0.4736,0.4762,0.4757,0.474,0.4741,0.4693,0.4684,0.4707,0.4707,0.4707,0,0.5409,0.5379,0.5312,0.5285,0.5254,0.5211,0.5179,0.5136,0.5104,0.5043,0.5019,0.4966,0.4921,0.4841,0.4795,0.4743,0.4732,0.4719,0.4724,0.4734,0.4729,0.4731,0.4727,0.4718,0.4718,0.4718,0.4718,0,0.539,0.537,0.5326,0.5274,0.5237,0.5194,0.515,0.5129,0.5078,0.5043,0.4991,0.4956,0.4887,0.4834,0.4777,0.4744,0.4721,0.4717,0.4709,0.4719,0.4734,0.4724,0.4759,0.4718,0.4718,0.4718,0.4718,0.4718,0.5383,0.5354,0.5302,0.5253,0.5215,0.5174,0.5142,0.5103,0.5059,0.4999,0.4977,0.4922,0.487,0.4791,0.4758,0.4714,0.4711,0.4701,0.4698,0.4695,0.4696,0.4743,0.4704,0.4704,0.4704,0.4704,0.4704,0,0.5361,0.5326,0.5281,0.522,0.5181,0.5165,0.5114,0.5083,0.5036,0.4989,0.4945,0.4884,0.4832,0.4782,0.4727,0.4701,0.469,0.4688,0.4689,0.4681,0.4703,0.4714,0.4698,0.4698,0.4698,0.4698,0.4698,0.4698,0.5345,0.5294,0.5268,0.5198,0.5162,0.5109,0.5082,0.5043,0.5006,0.4938,0.4895,0.4863,0.4814,0.4755,0.4706,0.4693,0.4673,0.4674,0.4657,0.4679,0.468,0.4681,0.4691,0.467,0.467,0.4639,0.4638,0.4638]}]]